Location: Newark
(50.1751°N, 5.6239°W)
Time: 23:36:55
(UTC+00:00)

ISS - Pass Details

Date: 30 September 2021
Orbit: 417 x 423 km, 51.6° (Epoch: 18 October)

Event Time Altitude Azimuth Distance (km) Brightness Sun altitude
Rises 20:37:00 0° 286° (WNW) 2,367 1.4 -24.8°
Reaches altitude 10° 20:39:18 10° 273° (W) 1,501 -0.1 -25.1°
Enters shadow 20:40:57 21° 249° (WSW) 1,014 -1.4 -25.4°
